| time (UTC) | temp F | wind direction | speed MPH | gust MPH | rain 1hr in | rain 24hr in | rain mn in | humidity % | barometer mb |
| 20260506202239 | 81 | 20 | 2.0 | 5.0 | 0.00 | 0.00 | 0.00 | 74 | 1011.1 |
| 20260506201736 | 81 | 318 | 3.0 | 8.0 | 0.00 | 0.00 | 0.00 | 73 | 1011.0 |
| 20260506201232 | 82 | 15 | 2.0 | 7.0 | 0.00 | 0.00 | 0.00 | 74 | 1010.9 |
| 20260506200729 | 81 | 313 | 4.0 | 12.0 | 0.00 | 0.00 | 0.00 | 73 | 1010.7 |
| 20260506200226 | 81 | 357 | 4.0 | 7.0 | 0.00 | 0.00 | 0.00 | 73 | 1010.8 |
| 20260506195722 | 80 | 108 | 3.0 | 9.0 | 0.00 | 0.00 | 0.00 | 75 | 1010.9 |
| 20260506195219 | 81 | 351 | 3.0 | 5.0 | 0.00 | 0.00 | 0.00 | 74 | 1010.7 |
| 20260506194716 | 81 | 26 | 2.0 | 8.0 | 0.00 | 0.00 | 0.00 | 74 | 1010.8 |
| 20260506194212 | 81 | 63 | 5.0 | 6.0 | 0.00 | 0.00 | 0.00 | 75 | 1010.9 |
| 20260506193711 | 80 | 110 | 3.0 | 6.0 | 0.00 | 0.00 | 0.00 | 76 | 1011.0 |
| 20260506193207 | 81 | 89 | 4.0 | 6.0 | 0.00 | 0.00 | 0.00 | 75 | 1011.0 |
| 20260506192704 | 81 | 86 | 2.0 | 5.0 | 0.00 | 0.00 | 0.00 | 75 | 1011.0 |
| 20260506192200 | 81 | 88 | 4.0 | 7.0 | 0.00 | 0.00 | 0.00 | 74 | 1010.9 |
| 20260506191657 | 81 | 120 | 3.0 | 6.0 | 0.00 | 0.00 | 0.00 | 75 | 1011.0 |
| 20260506191153 | 81 | 0 | 3.0 | 8.0 | 0.00 | 0.00 | 0.00 | 75 | 1010.9 |
| 20260506190650 | 82 | 111 | 4.0 | 6.0 | 0.00 | 0.00 | 0.00 | 76 | 1010.6 |
| 20260506190147 | 81 | 94 | 5.0 | 6.0 | 0.00 | 0.00 | 0.00 | 75 | 1010.9 |
| 20260506185644 | 81 | 74 | 4.0 | 6.0 | 0.00 | 0.00 | 0.00 | 77 | 1011.0 |
| 20260506185140 | 80 | 7 | 2.0 | 6.0 | 0.00 | 0.00 | 0.00 | 77 | 1011.1 |
| 20260506184638 | 80 | 1 | 3.0 | 7.0 | 0.00 | 0.00 | 0.00 | 76 | 1011.1 |
| 20260506184135 | 80 | 98 | 9.0 | 10.0 | 0.00 | 0.00 | 0.00 | 77 | 1011.4 |
| 20260506183632 | 79 | 70 | 3.0 | 6.0 | 0.00 | 0.00 | 0.00 | 79 | 1011.3 |
| 20260506183127 | 78 | 64 | 3.0 | 8.0 | 0.00 | 0.00 | 0.00 | 78 | 1011.2 |
| 20260506182625 | 78 | 124 | 3.0 | 8.0 | 0.00 | 0.00 | 0.00 | 77 | 1011.1 |
| 20260506182122 | 78 | 86 | 5.0 | 8.0 | 0.00 | 0.00 | 0.00 | 78 | 1011.3 |
| 20260506181620 | 77 | 86 | 6.0 | 6.0 | 0.00 | 0.00 | 0.00 | 79 | 1011.3 |
| 20260506181117 | 78 | 313 | 7.0 | 8.0 | 0.00 | 0.00 | 0.00 | 78 | 1011.3 |
| 20260506180614 | 77 | 56 | 2.0 | 4.0 | 0.00 | 0.00 | 0.00 | 79 | 1011.3 |
| 20260506180110 | 76 | 101 | 4.0 | 5.0 | 0.00 | 0.00 | 0.00 | 81 | 1011.2 |
| 20260506175606 | 75 | 99 | 2.0 | 3.0 | 0.00 | 0.00 | 0.00 | 82 | 1011.6 |
| 20260506175102 | 74 | 335 | 4.0 | 5.0 | 0.00 | 0.00 | 0.00 | 82 | 1011.6 |
| 20260506174602 | 74 | 345 | 2.0 | 5.0 | 0.00 | 0.00 | 0.00 | 83 | 1011.4 |
| 20260506174057 | 73 | 339 | 3.0 | 8.0 | 0.00 | 0.00 | 0.00 | 83 | 1011.5 |
| 20260506173555 | 73 | 12 | 6.0 | 7.0 | 0.00 | 0.00 | 0.00 | 83 | 1011.7 |
| 20260506173052 | 73 | 331 | 4.0 | 10.0 | 0.00 | 0.00 | 0.00 | 83 | 1011.8 |
| 20260506172549 | 75 | 338 | 7.0 | 11.0 | 0.00 | 0.00 | 0.00 | 82 | 1011.8 |
| 20260506172045 | 80 | 45 | 6.0 | 8.0 | 0.00 | 0.00 | 0.00 | 80 | 1011.5 |
| 20260506171543 | 81 | 94 | 2.0 | 6.0 | 0.00 | 0.00 | 0.00 | 77 | 1011.5 |
| 20260506171040 | 81 | 126 | 0.0 | 7.0 | 0.00 | 0.00 | 0.00 | 79 | 1011.4 |
| 20260506170537 | 81 | 82 | 5.0 | 7.0 | 0.00 | 0.00 | 0.00 | 78 | 1011.5 |
| 20260506170029 | 82 | 82 | 2.0 | 9.0 | 0.00 | 0.00 | 0.00 | 78 | 1011.6 |
| 20260506165528 | 82 | 130 | 1.0 | 5.0 | 0.00 | 0.00 | 0.00 | 78 | 1011.6 |
| 20260506165023 | 81 | 99 | 7.0 | 8.0 | 0.00 | 0.00 | 0.00 | 80 | 1011.9 |
| 20260506164520 | 79 | 93 | 4.0 | 5.0 | 0.00 | 0.00 | 0.00 | 84 | 1011.9 |
| 20260506164018 | 79 | 75 | 3.0 | 6.0 | 0.00 | 0.00 | 0.00 | 85 | 1011.8 |
| 20260506163514 | 79 | 97 | 4.0 | 4.0 | 0.00 | 0.00 | 0.00 | 86 | 1011.9 |
| 20260506163009 | 78 | 310 | 6.0 | 6.0 | 0.00 | 0.00 | 0.00 | 87 | 1012.0 |
| 20260506162506 | 78 | 345 | 4.0 | 5.0 | 0.00 | 0.00 | 0.00 | 88 | 1011.9 |
| 20260506161957 | 78 | 81 | 1.0 | 4.0 | 0.00 | 0.00 | 0.00 | 89 | 1011.9 |
| 20260506161455 | 78 | 60 | 1.0 | 3.0 | 0.00 | 0.00 | 0.00 | 89 | 1012.0 |
| 20260506160952 | 77 | 113 | 3.0 | 4.0 | 0.00 | 0.00 | 0.00 | 89 | 1012.1 |
| 20260506160450 | 77 | 0 | 2.0 | 3.0 | 0.00 | 0.00 | 0.00 | 90 | 1012.2 |
| 20260506155947 | 77 | 316 | 2.0 | 4.0 | 0.00 | 0.00 | 0.00 | 91 | 1012.2 |
| 20260506155444 | 77 | 3 | 2.0 | 4.0 | 0.00 | 0.00 | 0.00 | 91 | 1012.0 |
| 20260506153616 | 76 | 333 | 2.0 | 3.0 | 0.00 | 0.00 | 0.00 | 92 | 1011.7 |
| 20260506153114 | 76 | 75 | 2.0 | 3.0 | 0.00 | 0.00 | 0.00 | 92 | 1011.4 |
| 20260506152611 | 76 | 132 | 1.0 | 3.0 | 0.00 | 0.00 | 0.00 | 92 | 1011.2 |
| 20260506152109 | 76 | 49 | 2.0 | 3.0 | 0.00 | 0.00 | 0.00 | 92 | 1010.7 |
| 20260506151607 | 76 | 119 | 0.0 | 3.0 | 0.00 | 0.00 | 0.00 | 93 | 1010.9 |
| 20260506151103 | 76 | 99 | 2.0 | 3.0 | 0.00 | 0.00 | 0.00 | 93 | 1010.8 |
| 20260506150600 | 76 | 112 | 3.0 | 4.0 | 0.00 | 0.00 | 0.00 | 93 | 1010.8 |
| 20260506150057 | 76 | 11 | 0.0 | 0.0 | 0.00 | 0.00 | 0.00 | 94 | 1011.0 |
| 20260506145554 | 75 | 97 | 2.0 | 3.0 | 0.00 | 0.00 | 0.00 | 94 | 1011.0 |
| 20260506145051 | 75 | 100 | 2.0 | 3.0 | 0.00 | 0.00 | 0.00 | 94 | 1010.7 |
| 20260506144548 | 75 | 116 | 0.0 | 1.0 | 0.00 | 0.00 | 0.00 | 95 | 1010.7 |
| 20260506144045 | 75 | 117 | 1.0 | 2.0 | 0.00 | 0.00 | 0.00 | 95 | 1010.8 |
| 20260506143543 | 75 | 105 | 2.0 | 3.0 | 0.00 | 0.00 | 0.00 | 95 | 1010.6 |
| 20260506143041 | 75 | 122 | 2.0 | 3.0 | 0.00 | 0.00 | 0.00 | 95 | 1010.8 |
| 20260506142538 | 75 | 351 | 2.0 | 3.0 | 0.00 | 0.00 | 0.00 | 95 | 1010.9 |
| 20260506142037 | 75 | 355 | 0.0 | 2.0 | 0.00 | 0.00 | 0.00 | 96 | 1010.6 |
| 20260506141534 | 74 | 50 | 0.0 | 5.0 | 0.00 | 0.00 | 0.00 | 96 | 1010.7 |
| 20260506141032 | 75 | 109 | 2.0 | 3.0 | 0.00 | 0.00 | 0.00 | 96 | 1010.4 |
| 20260506140529 | 74 | 131 | 2.0 | 4.0 | 0.00 | 0.00 | 0.00 | 96 | 1010.3 |
| 20260506140026 | 74 | 158 | 1.0 | 5.0 | 0.00 | 0.00 | 0.00 | 95 | 1010.0 |
| 20260506135523 | 74 | 113 | 3.0 | 4.0 | 0.00 | 0.00 | 0.00 | 95 | 1009.9 |
| 20260506135019 | 74 | 104 | 3.0 | 4.0 | 0.00 | 0.00 | 0.00 | 95 | 1009.9 |
| 20260506134515 | 74 | 100 | 3.0 | 5.0 | 0.00 | 0.00 | 0.00 | 95 | 1009.6 |
| 20260506134012 | 74 | 89 | 4.0 | 4.0 | 0.00 | 0.00 | 0.00 | 95 | 1009.6 |
| 20260506133509 | 74 | 106 | 1.0 | 4.0 | 0.00 | 0.00 | 0.00 | 95 | 1009.6 |
| 20260506133000 | 74 | 89 | 6.0 | 6.0 | 0.00 | 0.00 | 0.00 | 95 | 1009.6 |
| 20260506132457 | 74 | 95 | 4.0 | 4.0 | 0.00 | 0.00 | 0.00 | 95 | 1009.4 |
| 20260506131955 | 74 | 120 | 2.0 | 3.0 | 0.00 | 0.00 | 0.00 | 95 | 1009.6 |
| 20260506131451 | 74 | 119 | 2.0 | 5.0 | 0.00 | 0.00 | 0.00 | 95 | 1009.5 |
| 20260506130948 | 74 | 96 | 3.0 | 5.0 | 0.00 | 0.00 | 0.00 | 95 | 1009.6 |
| 20260506130445 | 74 | 113 | 4.0 | 5.0 | 0.00 | 0.00 | 0.00 | 94 | 1009.5 |
| 20260506125942 | 74 | 95 | 2.0 | 3.0 | 0.00 | 0.00 | 0.00 | 94 | 1009.6 |
| 20260506125441 | 74 | 113 | 0.0 | 3.0 | 0.00 | 0.00 | 0.00 | 94 | 1009.6 |
| 20260506124938 | 74 | 102 | 1.0 | 3.0 | 0.00 | 0.00 | 0.00 | 94 | 1009.7 |
| 20260506124436 | 74 | 134 | 2.0 | 4.0 | 0.00 | 0.00 | 0.00 | 94 | 1009.5 |
| 20260506123934 | 74 | 133 | 2.0 | 3.0 | 0.00 | 0.00 | 0.00 | 94 | 1009.7 |
| 20260506123431 | 74 | 118 | 1.0 | 3.0 | 0.00 | 0.00 | 0.00 | 94 | 1009.6 |
| 20260506122928 | 74 | 97 | 0.0 | 2.0 | 0.00 | 0.00 | 0.00 | 94 | 1009.5 |
| 20260506122425 | 74 | 112 | 0.0 | 2.0 | 0.00 | 0.00 | 0.00 | 94 | 1009.5 |
| 20260506121924 | 74 | 57 | 0.0 | 2.0 | 0.00 | 0.00 | 0.00 | 94 | 1009.2 |
| 20260506121420 | 74 | 202 | 0.0 | 2.0 | 0.00 | 0.00 | 0.00 | 94 | 1009.4 |
| 20260506120917 | 74 | 113 | 2.0 | 2.0 | 0.00 | 0.00 | 0.00 | 93 | 1009.3 |
| 20260506120415 | 74 | 148 | 2.0 | 2.0 | 0.00 | 0.00 | 0.00 | 93 | 1009.4 |
| 20260506115912 | 75 | 126 | 1.0 | 2.0 | 0.00 | 0.00 | 0.00 | 93 | 1009.3 |
| 20260506115410 | 75 | 82 | 1.0 | 3.0 | 0.00 | 0.00 | 0.00 | 93 | 1009.3 |
| 20260506114908 | 75 | 173 | 1.0 | 3.0 | 0.00 | 0.00 | 0.00 | 93 | 1009.4 |
| 20260506114405 | 75 | 96 | 1.0 | 4.0 | 0.00 | 0.00 | 0.00 | 93 | 1009.2 |
| 20260506113904 | 75 | 125 | 3.0 | 3.0 | 0.00 | 0.00 | 0.00 | 93 | 1009.5 |
| 20260506113401 | 75 | 304 | 0.0 | 2.0 | 0.00 | 0.00 | 0.00 | 93 | 1009.2 |
| 20260506112857 | 75 | 106 | 2.0 | 2.0 | 0.00 | 0.00 | 0.00 | 93 | 1009.0 |
| 20260506112355 | 75 | 343 | 0.0 | 2.0 | 0.00 | 0.00 | 0.00 | 93 | 1009.1 |
| 20260506111852 | 75 | 48 | 0.0 | 2.0 | 0.00 | 0.00 | 0.00 | 93 | 1009.0 |
| 20260506111350 | 75 | 242 | 0.0 | 2.0 | 0.00 | 0.00 | 0.00 | 93 | 1009.0 |
| 20260506110847 | 75 | 341 | 1.0 | 2.0 | 0.00 | 0.00 | 0.00 | 93 | 1009.1 |
| 20260506110344 | 75 | 222 | 2.0 | 3.0 | 0.00 | 0.00 | 0.00 | 93 | 1008.9 |
| 20260506105841 | 75 | 239 | 1.0 | 3.0 | 0.00 | 0.00 | 0.00 | 93 | 1008.9 |
| 20260506105338 | 75 | 235 | 1.0 | 3.0 | 0.00 | 0.00 | 0.00 | 93 | 1008.7 |
| 20260506104835 | 75 | 263 | 2.0 | 3.0 | 0.00 | 0.00 | 0.00 | 93 | 1009.1 |
| 20260506104333 | 75 | 303 | 2.0 | 2.0 | 0.00 | 0.00 | 0.00 | 93 | 1009.0 |
| 20260506103830 | 75 | 274 | 0.0 | 2.0 | 0.00 | 0.00 | 0.00 | 92 | 1009.0 |
| 20260506103328 | 75 | 273 | 0.0 | 2.0 | 0.00 | 0.00 | 0.00 | 92 | 1008.9 |
| 20260506102825 | 75 | 13 | 0.0 | 3.0 | 0.00 | 0.00 | 0.00 | 92 | 1008.9 |
| 20260506102323 | 75 | 298 | 0.0 | 3.0 | 0.00 | 0.00 | 0.00 | 92 | 1008.9 |
| 20260506101820 | 75 | 66 | 0.0 | 3.0 | 0.00 | 0.00 | 0.00 | 92 | 1009.1 |
| 20260506101315 | 75 | 4 | 2.0 | 2.0 | 0.00 | 0.00 | 0.00 | 92 | 1009.0 |
| 20260506100814 | 75 | 321 | 0.0 | 3.0 | 0.00 | 0.00 | 0.00 | 92 | 1009.0 |
| 20260506100312 | 75 | 209 | 2.0 | 4.0 | 0.00 | 0.00 | 0.00 | 92 | 1008.9 |
| 20260506095810 | 75 | 273 | 0.0 | 3.0 | 0.00 | 0.00 | 0.00 | 92 | 1008.8 |
| 20260506095307 | 75 | 245 | 0.0 | 3.0 | 0.00 | 0.00 | 0.00 | 92 | 1008.7 |
| 20260506094803 | 75 | 243 | 2.0 | 2.0 | 0.00 | 0.00 | 0.00 | 92 | 1008.7 |
| 20260506094302 | 75 | 239 | 2.0 | 3.0 | 0.00 | 0.00 | 0.00 | 92 | 1008.9 |
| 20260506093800 | 75 | 256 | 1.0 | 3.0 | 0.00 | 0.00 | 0.00 | 91 | 1008.7 |
| 20260506093256 | 75 | 228 | 2.0 | 3.0 | 0.00 | 0.00 | 0.00 | 91 | 1008.5 |
| 20260506092755 | 75 | 249 | 3.0 | 4.0 | 0.00 | 0.00 | 0.00 | 91 | 1008.4 |
| 20260506092252 | 75 | 359 | 2.0 | 3.0 | 0.00 | 0.00 | 0.00 | 91 | 1008.4 |
| 20260506091749 | 75 | 124 | 2.0 | 4.0 | 0.00 | 0.00 | 0.00 | 91 | 1008.3 |
| 20260506091247 | 75 | 50 | 0.0 | 3.0 | 0.00 | 0.00 | 0.00 | 91 | 1008.7 |
| 20260506090744 | 75 | 177 | 3.0 | 6.0 | 0.00 | 0.00 | 0.00 | 91 | 1008.6 |
| 20260506090241 | 75 | 254 | 1.0 | 3.0 | 0.00 | 0.00 | 0.00 | 90 | 1008.6 |
| 20260506085738 | 75 | 323 | 1.0 | 6.0 | 0.00 | 0.00 | 0.00 | 90 | 1008.8 |
| 20260506085234 | 75 | 312 | 2.0 | 3.0 | 0.00 | 0.00 | 0.00 | 90 | 1008.8 |
| 20260506084731 | 75 | 234 | 0.0 | 4.0 | 0.00 | 0.00 | 0.00 | 90 | 1008.6 |
| 20260506084227 | 75 | 212 | 2.0 | 5.0 | 0.00 | 0.00 | 0.00 | 90 | 1008.4 |
| 20260506083724 | 76 | 260 | 0.0 | 4.0 | 0.00 | 0.00 | 0.00 | 90 | 1008.7 |
| 20260506083222 | 76 | 189 | 3.0 | 5.0 | 0.00 | 0.00 | 0.00 | 90 | 1008.5 |
| 20260506082719 | 76 | 261 | 2.0 | 3.0 | 0.00 | 0.00 | 0.00 | 90 | 1008.3 |
| 20260506082215 | 76 | 266 | 0.0 | 3.0 | 0.00 | 0.00 | 0.00 | 90 | 1008.7 |
| 20260506081713 | 76 | 271 | 0.0 | 3.0 | 0.00 | 0.00 | 0.00 | 90 | 1009.0 |
| 20260506081210 | 76 | 260 | 2.0 | 4.0 | 0.00 | 0.00 | 0.00 | 90 | 1008.7 |
| 20260506080708 | 76 | 224 | 0.0 | 5.0 | 0.00 | 0.00 | 0.00 | 90 | 1008.7 |
| 20260506080204 | 76 | 300 | 3.0 | 3.0 | 0.00 | 0.00 | 0.00 | 90 | 1008.7 |
| 20260506073148 | 76 | 152 | 2.0 | 4.0 | 0.00 | 0.00 | 0.00 | 91 | 1008.8 |
| 20260506072644 | 76 | 281 | 0.0 | 3.0 | 0.00 | 0.00 | 0.00 | 91 | 1008.9 |
| 20260506072143 | 76 | 313 | 2.0 | 3.0 | 0.00 | 0.00 | 0.00 | 91 | 1008.8 |
| 20260506071640 | 76 | 291 | 2.0 | 3.0 | 0.00 | 0.00 | 0.00 | 91 | 1009.2 |
| 20260506071137 | 76 | 230 | 0.0 | 3.0 | 0.00 | 0.00 | 0.00 | 91 | 1009.2 |
| 20260506070634 | 75 | 172 | 3.0 | 4.0 | 0.00 | 0.00 | 0.00 | 91 | 1008.8 |
| 20260506070131 | 75 | 340 | 2.0 | 4.0 | 0.00 | 0.00 | 0.00 | 91 | 1009.1 |
| 20260506062109 | 75 | 264 | 2.0 | 5.0 | 0.00 | 0.00 | 0.00 | 91 | 1009.1 |
| 20260506061604 | 76 | 287 | 0.0 | 3.0 | 0.00 | 0.00 | 0.00 | 91 | 1009.3 |
| 20260506061102 | 76 | 194 | 1.0 | 4.0 | 0.00 | 0.00 | 0.00 | 91 | 1009.4 |
| 20260506060601 | 76 | 245 | 1.0 | 3.0 | 0.00 | 0.00 | 0.00 | 90 | 1009.5 |
| 20260506051029 | 76 | 236 | 2.0 | 5.0 | 0.00 | 0.00 | 0.00 | 89 | 1009.4 |
| 20260506050527 | 77 | 234 | 3.0 | 6.0 | 0.00 | 0.00 | 0.00 | 88 | 1009.1 |
| 20260506045017 | 77 | 230 | 2.0 | 3.0 | 0.00 | 0.00 | 0.00 | 88 | 1009.4 |
| 20260506044516 | 77 | 326 | 1.0 | 3.0 | 0.00 | 0.00 | 0.00 | 88 | 1009.2 |
| 20260506044012 | 77 | 133 | 2.0 | 4.0 | 0.00 | 0.00 | 0.00 | 88 | 1009.2 |
| 20260506043509 | 77 | 110 | 2.0 | 4.0 | 0.00 | 0.00 | 0.00 | 87 | 1009.4 |
| 20260506043007 | 77 | 100 | 1.0 | 2.0 | 0.00 | 0.00 | 0.00 | 87 | 1009.1 |
| 20260506042501 | 77 | 203 | 3.0 | 5.0 | 0.00 | 0.00 | 0.00 | 87 | 1009.3 |
| 20260506041958 | 77 | 246 | 1.0 | 6.0 | 0.00 | 0.00 | 0.00 | 87 | 1009.2 |
| 20260506041456 | 77 | 133 | 3.0 | 3.0 | 0.00 | 0.00 | 0.00 | 87 | 1009.0 |
| 20260506040953 | 77 | 272 | 0.0 | 5.0 | 0.00 | 0.00 | 0.00 | 87 | 1009.1 |
| 20260506040451 | 77 | 206 | 0.0 | 2.0 | 0.00 | 0.00 | 0.00 | 87 | 1009.0 |
| 20260506035946 | 77 | 251 | 1.0 | 6.0 | 0.00 | 0.00 | 0.00 | 87 | 1009.3 |
| 20260506035443 | 77 | 346 | 2.0 | 5.0 | 0.00 | 0.00 | 0.00 | 86 | 1009.1 |
| 20260506034940 | 77 | 244 | 2.0 | 5.0 | 0.00 | 0.00 | 0.00 | 87 | 1009.1 |
| 20260506034438 | 77 | 217 | 1.0 | 3.0 | 0.00 | 0.00 | 0.00 | 86 | 1008.8 |
| 20260506033935 | 77 | 135 | 3.0 | 5.0 | 0.00 | 0.00 | 0.00 | 86 | 1008.7 |
| 20260506033432 | 78 | 255 | 0.0 | 3.0 | 0.00 | 0.00 | 0.00 | 86 | 1008.6 |
| 20260506032928 | 78 | 122 | 2.0 | 5.0 | 0.00 | 0.00 | 0.00 | 86 | 1008.4 |
| 20260506032426 | 78 | 237 | 1.0 | 4.0 | 0.00 | 0.00 | 0.00 | 85 | 1008.4 |
| 20260506031922 | 78 | 328 | 0.0 | 5.0 | 0.00 | 0.00 | 0.00 | 85 | 1008.3 |
| 20260506031420 | 78 | 189 | 3.0 | 6.0 | 0.00 | 0.00 | 0.00 | 85 | 1008.2 |
| 20260506030917 | 78 | 146 | 3.0 | 6.0 | 0.00 | 0.00 | 0.00 | 84 | 1008.0 |
| 20260506030415 | 79 | 106 | 2.0 | 4.0 | 0.00 | 0.00 | 0.00 | 84 | 1008.0 |
| 20260506025912 | 79 | 255 | 2.0 | 4.0 | 0.00 | 0.00 | 0.00 | 83 | 1008.1 |
| 20260506025409 | 79 | 307 | 2.0 | 10.0 | 0.00 | 0.00 | 0.00 | 83 | 1008.0 |
| 20260506024905 | 79 | 211 | 1.0 | 6.0 | 0.00 | 0.00 | 0.00 | 83 | 1007.9 |
| 20260506024402 | 79 | 76 | 1.0 | 5.0 | 0.00 | 0.00 | 0.00 | 83 | 1007.6 |
| 20260506023858 | 79 | 240 | 0.0 | 7.0 | 0.00 | 0.00 | 0.00 | 83 | 1008.0 |
| 20260506023355 | 80 | 85 | 0.0 | 5.0 | 0.00 | 0.00 | 0.00 | 82 | 1007.8 |
| 20260506022852 | 80 | 166 | 3.0 | 4.0 | 0.00 | 0.00 | 0.00 | 82 | 1007.7 |
| 20260506022349 | 80 | 215 | 3.0 | 3.0 | 0.00 | 0.00 | 0.00 | 83 | 1007.9 |
| 20260506021847 | 80 | 145 | 1.0 | 5.0 | 0.00 | 0.00 | 0.00 | 83 | 1007.7 |
| 20260506021344 | 79 | 145 | 0.0 | 3.0 | 0.00 | 0.00 | 0.00 | 83 | 1007.8 |
| 20260506020841 | 79 | 158 | 3.0 | 3.0 | 0.00 | 0.00 | 0.00 | 83 | 1007.4 |
| 20260506020339 | 80 | 151 | 2.0 | 4.0 | 0.00 | 0.00 | 0.00 | 83 | 1007.4 |
| 20260506015836 | 80 | 88 | 2.0 | 4.0 | 0.00 | 0.00 | 0.00 | 82 | 1007.4 |
| 20260506015333 | 80 | 120 | 1.0 | 4.0 | 0.00 | 0.00 | 0.00 | 81 | 1007.2 |
| 20260506014830 | 80 | 115 | 1.0 | 3.0 | 0.00 | 0.00 | 0.00 | 80 | 1007.3 |
| 20260506014327 | 81 | 182 | 0.0 | 5.0 | 0.00 | 0.00 | 0.00 | 79 | 1007.0 |
| 20260506013823 | 81 | 107 | 4.0 | 4.0 | 0.00 | 0.00 | 0.00 | 78 | 1007.1 |
| 20260506013321 | 82 | 119 | 4.0 | 4.0 | 0.00 | 0.00 | 0.00 | 77 | 1007.1 |
| 20260506012817 | 82 | 118 | 1.0 | 2.0 | 0.00 | 0.00 | 0.00 | 76 | 1007.2 |
| 20260506012314 | 82 | 78 | 1.0 | 3.0 | 0.00 | 0.00 | 0.00 | 76 | 1006.9 |
| 20260506011812 | 82 | 128 | 1.0 | 1.0 | 0.00 | 0.00 | 0.00 | 76 | 1006.7 |
| 20260506011308 | 82 | 227 | 0.0 | 2.0 | 0.00 | 0.00 | 0.00 | 76 | 1007.0 |
| 20260506010806 | 82 | 183 | 0.0 | 1.0 | 0.00 | 0.00 | 0.00 | 75 | 1006.9 |
| 20260506010304 | 83 | 180 | 0.0 | 3.0 | 0.00 | 0.00 | 0.00 | 75 | 1006.9 |
| 20260506005800 | 83 | 258 | 0.0 | 1.0 | 0.00 | 0.00 | 0.00 | 75 | 1006.8 |
| 20260506005257 | 83 | 242 | 0.0 | 1.0 | 0.00 | 0.00 | 0.00 | 74 | 1006.8 |
| 20260506004753 | 83 | 156 | 2.0 | 2.0 | 0.00 | 0.00 | 0.00 | 74 | 1006.7 |
| 20260506004251 | 83 | 205 | 1.0 | 3.0 | 0.00 | 0.00 | 0.00 | 73 | 1006.6 |
| 20260506003747 | 84 | 121 | 2.0 | 4.0 | 0.00 | 0.00 | 0.00 | 72 | 1006.6 |
| 20260506003243 | 84 | 234 | 1.0 | 2.0 | 0.00 | 0.00 | 0.00 | 72 | 1006.8 |
| 20260506002739 | 84 | 121 | 1.0 | 3.0 | 0.00 | 0.00 | 0.00 | 72 | 1006.6 |
| 20260506002236 | 84 | 276 | 2.0 | 2.0 | 0.00 | 0.00 | 0.00 | 71 | 1006.8 |
| 20260506001731 | 84 | 114 | 2.0 | 3.0 | 0.00 | 0.00 | 0.00 | 72 | 1006.7 |
| 20260506001229 | 84 | 141 | 0.0 | 3.0 | 0.00 | 0.00 | 0.00 | 72 | 1006.6 |
| 20260506000726 | 84 | 113 | 0.0 | 2.0 | 0.00 | 0.00 | 0.00 | 72 | 1006.6 |
| 20260506000226 | 84 | 280 | 1.0 | 2.0 | 0.00 | 0.00 | 0.00 | 72 | 1006.5 |
| 20260505235720 | 84 | 176 | 0.0 | 3.0 | 0.00 | 0.00 | 0.00 | 71 | 1006.3 |
| 20260505235218 | 85 | 197 | 1.0 | 3.0 | 0.00 | 0.00 | 0.00 | 70 | 1006.3 |
| 20260505234715 | 85 | 159 | 1.0 | 3.0 | 0.00 | 0.00 | 0.00 | 70 | 1006.3 |
| 20260505234212 | 85 | 260 | 0.0 | 4.0 | 0.00 | 0.00 | 0.00 | 70 | 1006.3 |
| 20260505233708 | 85 | 288 | 0.0 | 4.0 | 0.00 | 0.00 | 0.00 | 70 | 1006.1 |
| 20260505233207 | 85 | 135 | 6.0 | 6.0 | 0.00 | 0.00 | 0.00 | 69 | 1006.2 |
| 20260505232704 | 86 | 234 | 3.0 | 4.0 | 0.00 | 0.00 | 0.00 | 68 | 1006.1 |
| 20260505232201 | 86 | 189 | 2.0 | 3.0 | 0.00 | 0.00 | 0.00 | 69 | 1006.2 |
| 20260505231658 | 86 | 249 | 1.0 | 4.0 | 0.00 | 0.00 | 0.00 | 68 | 1006.1 |
| 20260505231157 | 86 | 213 | 3.0 | 5.0 | 0.00 | 0.00 | 0.00 | 67 | 1006.0 |
| 20260505230654 | 86 | 137 | 1.0 | 5.0 | 0.00 | 0.00 | 0.00 | 67 | 1006.0 |
| 20260505230151 | 87 | 246 | 4.0 | 6.0 | 0.00 | 0.00 | 0.00 | 66 | 1006.1 |
| 20260505225647 | 87 | 290 | 1.0 | 5.0 | 0.00 | 0.00 | 0.00 | 67 | 1006.0 |
| 20260505225143 | 86 | 154 | 3.0 | 4.0 | 0.00 | 0.00 | 0.00 | 67 | 1005.9 |
| 20260505224639 | 87 | 168 | 4.0 | 8.0 | 0.00 | 0.00 | 0.00 | 67 | 1006.1 |
| 20260505224138 | 87 | 291 | 2.0 | 4.0 | 0.00 | 0.00 | 0.00 | 65 | 1006.2 |
| 20260505223635 | 87 | 221 | 2.0 | 4.0 | 0.00 | 0.00 | 0.00 | 65 | 1006.5 |
| 20260505223131 | 86 | 186 | 3.0 | 5.0 | 0.00 | 0.00 | 0.00 | 67 | 1006.4 |
| 20260505222627 | 86 | 210 | 3.0 | 4.0 | 0.00 | 0.00 | 0.00 | 68 | 1006.3 |
| 20260505222123 | 86 | 286 | 1.0 | 3.0 | 0.00 | 0.00 | 0.00 | 68 | 1006.7 |
| 20260505221620 | 87 | 274 | 1.0 | 4.0 | 0.00 | 0.00 | 0.00 | 66 | 1006.5 |
| 20260505221117 | 87 | 280 | 1.0 | 3.0 | 0.00 | 0.00 | 0.00 | 67 | 1006.4 |
| 20260505220614 | 87 | 263 | 2.0 | 3.0 | 0.00 | 0.00 | 0.00 | 67 | 1006.3 |
| 20260505220112 | 86 | 311 | 3.0 | 5.0 | 0.00 | 0.00 | 0.00 | 67 | 1006.4 |
| 20260505215609 | 86 | 181 | 3.0 | 4.0 | 0.00 | 0.00 | 0.00 | 65 | 1006.4 |
| 20260505215108 | 87 | 278 | 2.0 | 5.0 | 0.00 | 0.00 | 0.00 | 66 | 1006.4 |
| 20260505214605 | 87 | 271 | 3.0 | 7.0 | 0.00 | 0.00 | 0.00 | 65 | 1006.9 |
| 20260505214102 | 88 | 254 | 2.0 | 5.0 | 0.00 | 0.00 | 0.00 | 64 | 1006.6 |
| 20260505213600 | 88 | 278 | 1.0 | 4.0 | 0.00 | 0.00 | 0.00 | 65 | 1006.8 |
| 20260505213056 | 86 | 25 | 1.0 | 5.0 | 0.00 | 0.00 | 0.00 | 66 | 1006.9 |
| 20260505212552 | 86 | 242 | 1.0 | 7.0 | 0.00 | 0.00 | 0.00 | 67 | 1007.2 |
| 20260505212050 | 86 | 277 | 3.0 | 4.0 | 0.00 | 0.00 | 0.00 | 67 | 1007.2 |
| 20260505211546 | 86 | 207 | 0.0 | 5.0 | 0.00 | 0.00 | 0.00 | 67 | 1007.4 |
| 20260505211043 | 86 | 52 | 2.0 | 5.0 | 0.00 | 0.00 | 0.00 | 68 | 1007.2 |
| 20260505210540 | 86 | 287 | 3.0 | 4.0 | 0.00 | 0.00 | 0.00 | 67 | 1007.2 |
| 20260505210037 | 86 | 197 | 1.0 | 4.0 | 0.00 | 0.00 | 0.00 | 67 | 1007.1 |
| 20260505205535 | 85 | 219 | 4.0 | 8.0 | 0.00 | 0.00 | 0.00 | 68 | 1007.3 |
| 20260505205032 | 85 | 293 | 2.0 | 4.0 | 0.00 | 0.00 | 0.00 | 69 | 1007.5 |
| 20260505204530 | 86 | 295 | 3.0 | 3.0 | 0.00 | 0.00 | 0.00 | 68 | 1007.5 |
| 20260505204027 | 86 | 254 | 3.0 | 5.0 | 0.00 | 0.00 | 0.00 | 66 | 1007.5 |
| 20260505203523 | 86 | 290 | 3.0 | 4.0 | 0.00 | 0.00 | 0.00 | 66 | 1007.7 |
| 20260505203020 | 87 | 262 | 3.0 | 7.0 | 0.00 | 0.00 | 0.00 | 65 | 1007.8 |